User: anonymous   Login
Location: SAPM � Hemmingford
(45.0500°N, 73.5833°W)
Time: 23:33:47
(UTC-04:00)
Language:

Cosmos 1603 - Orbit

View from above orbital plane
View from above orbital plane
View from above satellite
View from above satellite

Ground track
Ground track

The orbit data is extracted from the following two-line orbital elements,

1 15333U 84106A   16126.39027028  .00000261  00000-0  16161-3 0  9998
2 15333  71.0266 226.2680 0018022 110.3807 249.9253 14.14029643630612
Epoch (UTC): 05 May 2016 09:21:59
Eccentricity: 0.0018022
inclination: 71.0266°
perigee height: 832 km
apogee height: 858 km
right ascension of ascending node: 226.2680°
argument of perigee: 110.3807°
revolutions per day: 14.14029643
mean anomaly at epoch: 249.9253°
orbit number at epoch: 63061

The dashed part of the orbit path shows where the satellite is in the earth's shadow,  

DLR